Weather History for Marrakech, Morocco

Change the Weather History Date:

Monday, September 9, 2013

  Actual Average Record
Temperature  
Mean Temperature 78 °F -  
Max Temperature 89 °F 86 °F 105 °F (2000)
Min Temperature 66 °F 62 °F 60 °F (1996)
Cooling Degree Days 12    
Growing Degree Days 28 (Base 50)    
Moisture  
Dew Point 61 °F    
Average Humidity 59    
Maximum Humidity 88    
Minimum Humidity 22    
Precipitation  
Precipitation 0.00 in 0.01 in - ()
Sea Level Pressure  
Sea Level Pressure 30.15 in    
Wind  
Wind Speed 6 mph ()    
Max Wind Speed 14 mph    
Max Gust Speed -    
Visibility 5.9 miles    
Events      
Averages and records for this station are not official NWS values.
T = Trace of Precipitation, MM = Missing Value Source: Averaged Metar Reports

Daily Weather History Graph

Daily Weather History Graph

Search for Another Location

Airport:

Trip Planner

Search our weather history database for the weather conditions in past years. The results will help you decide how hot, cold, wet, or windy it might be!

Date:

Astronomy

Sep. 09, 2013 Rise Set
Actual Time 7:12 AM WEST 7:45 PM WEST
Civil Twilight 6:48 AM WEST 8:10 PM WEST
Nautical Twilight 6:19 AM WEST 8:38 PM WEST
Astronomical Twilight 5:49 AM WEST 9:08 PM WEST
Moon 11:01 AM WEST (9/9) 10:12 PM WEST (9/9)
Length of Visible Light 13h 22m
Length of Day
12h 33m
Waxing Crescent, 17% of the Moon is Illuminated
Sep 9
Waxing Crescent
Sep 12
First Quarter
Sep 19
Full
Sep 27
Last Quarter
Oct 5
New

Hourly Weather History & Observations

Time (WEST) Temp. Heat Index Dew Point Humidity Pressure Visibility Wind Dir Wind Speed Gust Speed Precip Events Conditions
12:00 AM 71.6 °F - 62.6 °F 73% 30.21 in 6.2 mi NE 10.4 mph - N/A   Scattered Clouds
12:30 AM 71.6 °F - 62.6 °F 73% 30.21 in 6.2 mi NNE 9.2 mph - N/A   Scattered Clouds
1:00 AM 71 °F - 62 °F 66% 30.16 in 6 mi NE 6.9 mph - -   Mostly Cloudy
1:00 AM 71.6 °F - 62.6 °F 73% 30.21 in 6.2 mi ENE 5.8 mph - N/A   Scattered Clouds
2:00 AM 69.8 °F - 62.6 °F 78% 30.21 in 6.2 mi NE 5.8 mph - N/A   Scattered Clouds
2:30 AM 69.8 °F - 60.8 °F 73% 30.21 in 6.2 mi ENE 8.1 mph - N/A   Scattered Clouds
3:00 AM 69.8 °F - 62.6 °F 78% 30.18 in 6.2 mi ENE 5.8 mph - N/A   Scattered Clouds
3:30 AM 69.8 °F - 62.6 °F 78% 30.18 in 6.2 mi East 6.9 mph - N/A   Scattered Clouds
4:00 AM 69 °F - 62 °F 74% 30.14 in 6 mi ESE 5.8 mph - -   Partly Cloudy
4:00 AM 69.8 °F - 62.6 °F 78% 30.18 in 6.2 mi ESE 5.8 mph - N/A   Scattered Clouds
4:30 AM 69.8 °F - 62.6 °F 78% 30.18 in 6.2 mi East 3.5 mph - N/A   Scattered Clouds
5:00 AM 68.0 °F - 62.6 °F 83% 30.18 in 6.2 mi ENE 4.6 mph - N/A   Scattered Clouds
5:30 AM 68.0 °F - 62.6 °F 83% 30.15 in 6.2 mi ENE 4.6 mph - N/A   Scattered Clouds
6:00 AM 66.2 °F - 62.6 °F 88% 30.15 in 6.2 mi NE 4.6 mph - N/A   Partly Cloudy
6:30 AM 66.2 °F - 62.6 °F 88% 30.15 in 6.2 mi East 4.6 mph - N/A   Partly Cloudy
7:00 AM 66 °F - 63 °F 85% 30.13 in 5 mi ENE 5.8 mph - -   Scattered Clouds
7:00 AM 66.2 °F - 62.6 °F 88% 30.15 in 6.2 mi ENE 5.8 mph - N/A   Partly Cloudy
7:30 AM 66.2 °F - 62.6 °F 88% 30.18 in 5.0 mi ENE 4.6 mph - N/A   Unknown
8:00 AM 66.2 °F - 62.6 °F 88% 30.18 in 5.0 mi Variable 2.3 mph - N/A   Unknown
8:30 AM 68.0 °F - 64.4 °F 88% 30.18 in 5.0 mi ENE 3.5 mph - N/A   Unknown
9:00 AM 69.8 °F - 64.4 °F 83% 30.18 in 5.0 mi East 3.5 mph - N/A   Unknown
9:30 AM 71.6 °F - 64.4 °F 78% 30.18 in 5.0 mi East 5.8 mph - N/A   Unknown
9:45 AM 72 °F - 63 °F 67% 30.14 in 5 mi ENE 3.5 mph - -  
10:00 AM 71.6 °F - 62.6 °F 73% 30.21 in 5.0 mi ENE 3.5 mph - N/A   Unknown
10:30 AM 73.4 °F - 64.4 °F 73% 30.21 in 5.0 mi North 2.3 mph - N/A   Unknown
11:00 AM 77.0 °F - 64.4 °F 65% 30.21 in 5.0 mi North 4.6 mph - N/A   Unknown
11:30 AM 77.0 °F - 64.4 °F 65% 30.21 in 5.0 mi NNW 3.5 mph - N/A   Unknown
12:00 PM 78.8 °F - 62.6 °F 57% 30.21 in 5.0 mi North 3.5 mph - N/A   Unknown
12:30 PM 80.6 °F 82.3 °F 64.4 °F 58% 30.21 in 5.0 mi NNE 3.5 mph - N/A   Unknown
1:00 PM 82 °F - 63 °F 43% 30.11 in 5 mi North 3.5 mph - -   Scattered Clouds
1:00 PM 82.4 °F 83.9 °F 64.4 °F 54% 30.18 in 5.0 mi NNE 3.5 mph - N/A   Partly Cloudy
1:30 PM 84.2 °F 84.4 °F 60.8 °F 45% 30.18 in 6.2 mi Variable 5.8 mph - N/A   Partly Cloudy
2:00 PM 86.0 °F 86.1 °F 60.8 °F 43% 30.15 in 6.2 mi NNE 6.9 mph - N/A   Partly Cloudy
2:30 PM 86.0 °F 86.1 °F 60.8 °F 43% 30.15 in 6.2 mi NE 6.9 mph - N/A   Partly Cloudy
3:00 PM 86.0 °F 85.4 °F 59.0 °F 40% 30.15 in 6.2 mi ENE 6.9 mph - N/A   Scattered Clouds
3:30 PM 87.8 °F 87.1 °F 59.0 °F 38% 30.12 in 6.2 mi North 8.1 mph - N/A   Scattered Clouds
4:00 PM 89 °F - 58 °F 25% 30.02 in 6 mi ENE 5.8 mph - -   Partly Cloudy
4:00 PM 87.8 °F 87.1 °F 59.0 °F 38% 30.12 in 6.2 mi ENE 4.6 mph - N/A   Scattered Clouds
4:30 PM 87.8 °F 86.5 °F 57.2 °F 35% 30.12 in 6.2 mi East 4.6 mph - N/A   Scattered Clouds
5:00 PM 89.6 °F 88.1 °F 57.2 °F 33% 30.09 in 6.2 mi Variable 4.6 mph - N/A   Scattered Clouds
5:30 PM 89.6 °F 88.1 °F 57.2 °F 33% 30.09 in 6.2 mi ENE 8.1 mph - N/A   Scattered Clouds
6:00 PM 89.6 °F 87.7 °F 55.4 °F 31% 30.09 in 6.2 mi NE 8.1 mph - N/A   Scattered Clouds
6:30 PM 87.8 °F 85.7 °F 53.6 °F 31% 30.09 in 6.2 mi NE 6.9 mph - N/A   Scattered Clouds
7:00 PM 88 °F - 54 °F 22% 30.00 in 6 mi NE 6.9 mph - -   Partly Cloudy
7:00 PM 87.8 °F 86.1 °F 55.4 °F 33% 30.09 in 6.2 mi ENE 5.8 mph - N/A   Scattered Clouds
7:30 PM 87.8 °F 85.7 °F 53.6 °F 31% 30.09 in 6.2 mi NE 5.8 mph - N/A   Scattered Clouds
8:00 PM 86.0 °F 84.2 °F 53.6 °F 33% 30.09 in 6.2 mi NE 5.8 mph - N/A   Scattered Clouds
8:30 PM 84.2 °F 82.8 °F 53.6 °F 35% 30.09 in 6.2 mi ENE 4.6 mph - N/A   Scattered Clouds
9:00 PM 84.2 °F 83.5 °F 57.2 °F 40% 30.12 in 6.2 mi NNE 10.4 mph - N/A   Scattered Clouds
9:30 PM 82.4 °F 82.5 °F 59.0 °F 45% 30.12 in 6.2 mi NNE 13.8 mph - N/A   Scattered Clouds
10:00 PM 80 °F - 58 °F 37% 30.07 in 6 mi NNE 13.8 mph - -   Partly Cloudy
10:00 PM 80.6 °F 81.1 °F 59.0 °F 48% 30.15 in 6.2 mi NNE 13.8 mph - N/A   Scattered Clouds
10:30 PM 78.8 °F - 59.0 °F 51% 30.15 in 6.2 mi NNE 12.7 mph - N/A   Partly Cloudy
11:00 PM 77.0 °F - 59.0 °F 54% 30.15 in 6.2 mi NNE 8.1 mph - N/A   Partly Cloudy
11:30 PM 77.0 °F - 59.0 °F 54% 30.15 in 6.2 mi ENE 8.1 mph - N/A   Partly Cloudy